,,,PA_Meas_PMT16A,,PR_Meas_QMR101_102,,RH_Meas_QMH101,,SR_Meas_QMS101,,TA_Meas_QMH101,,GenWind,,GenWind,
date,time,status,PA,status,PR,status,RH,status,SR,status,TA,status,DirAvg,status,SpdAvg,
2012-06-08, 00:00:04,VALID,1006.11,VALID,0,VALID,93.5453,VALID,0.0815089,VALID,24.422,VALID,60,VALID,0,
2012-06-08, 00:01:04,VALID,1006.1,VALID,0,VALID,93.6064,VALID,0,VALID,24.4414,VALID,60,VALID,0,
2012-06-08, 00:02:04,VALID,1006.08,VALID,0,VALID,93.6521,VALID,0.0815089,VALID,24.4609,VALID,60,VALID,0,
2012-06-08, 00:03:04,VALID,1006.07,VALID,0,VALID,93.6216,VALID,0.0815089,VALID,24.4414,VALID,60,VALID,0,
2012-06-08, 00:04:04,VALID,1006.08,VALID,0,VALID,93.5911,VALID,0,VALID,24.422,VALID,60,VALID,0,
2012-06-08, 00:05:04,VALID,1006.07,VALID,0,VALID,93.6369,VALID,0.0815089,VALID,24.4433,VALID,60,VALID,0,
2012-06-08, 00:06:04,VALID,1006.05,VALID,0,VALID,93.6521,VALID,0,VALID,24.422,VALID,60,VALID,0,
2012-06-08, 00:07:04,VALID,1006.06,VALID,0,VALID,93.6674,VALID,0.0815089,VALID,24.4025,VALID,60,VALID,0,
2012-06-08, 00:08:04,VALID,1006.05,VALID,0,VALID,93.675,VALID,0.0815089,VALID,24.4238,VALID,60,VALID,0,
2012-06-08, 00:09:04,VALID,1006.05,VALID,0,VALID,93.6826,VALID,0.0815089,VALID,24.4025,VALID,60,VALID,0,
2012-06-08, 00:10:04,VALID,1006.05,VALID,0,VALID,93.6826,VALID,0,VALID,24.4025,VALID,60,VALID,0,
2012-06-08, 00:11:04,VALID,1006.03,VALID,0,VALID,93.7284,VALID,0.0815089,VALID,24.4025,VALID,60,VALID,0,
2012-06-08, 00:12:04,VALID,1006.05,VALID,0,VALID,93.7437,VALID,0.0815089,VALID,24.4433,VALID,60,VALID,0,
2012-06-08, 00:13:04,VALID,1006.01,VALID,0,VALID,93.7589,VALID,0.0815089,VALID,24.422,VALID,60,VALID,0,
2012-06-08, 00:14:04,VALID,1006.03,VALID,0,VALID,93.7666,VALID,0,VALID,24.422,VALID,60,VALID,0,
2012-06-08, 00:15:04,VALID,1006.01,VALID,0,VALID,93.7666,VALID,0,VALID,24.422,VALID,60,VALID,0,
2012-06-08, 00:16:04,VALID,1006,VALID,0,VALID,93.7742,VALID,0.0815089,VALID,24.422,VALID,60,VALID,0,
2012-06-08, 00:17:04,VALID,1006,VALID,0,VALID,93.7895,VALID,0.0815089,VALID,24.4433,VALID,60,VALID,0,
2012-06-08, 00:18:04,VALID,1005.96,VALID,0,VALID,93.7971,VALID,0,VALID,24.4433,VALID,60,VALID,0,
2012-06-08, 00:19:04,VALID,1005.98,VALID,0,VALID,93.8047,VALID,0.0815089,VALID,24.4006,VALID,60,VALID,0,
2012-06-08, 00:20:04,VALID,1005.98,VALID,0,VALID,93.7742,VALID,0.0815089,VALID,24.4025,VALID,60,VALID,0,
2012-06-08, 00:21:04,VALID,1005.95,VALID,0,VALID,93.7895,VALID,0,VALID,24.4025,VALID,60,VALID,0,
2012-06-08, 00:22:04,VALID,1005.94,VALID,0,VALID,93.82,VALID,0.0815089,VALID,24.4238,VALID,60,VALID,0,
2012-06-08, 00:23:04,VALID,1005.91,VALID,0,VALID,93.8352,VALID,0,VALID,24.4238,VALID,60,VALID,0,
2012-06-08, 00:24:04,VALID,1005.93,VALID,0,VALID,93.9115,VALID,0.0815089,VALID,24.4433,VALID,60,VALID,0,
2012-06-08, 00:25:04,VALID,1005.92,VALID,0,VALID,93.9115,VALID,0.0815089,VALID,24.4433,VALID,60,VALID,0,
2012-06-08, 00:26:04,VALID,1005.93,VALID,0,VALID,93.9115,VALID,0,VALID,24.422,VALID,60,VALID,0,
2012-06-08, 00:27:04,VALID,1005.9,VALID,0,VALID,93.881,VALID,0.0815089,VALID,24.4025,VALID,60,VALID,0,
2012-06-08, 00:28:04,VALID,1005.9,VALID,0,VALID,93.8963,VALID,0.0815089,VALID,24.422,VALID,60,VALID,0,
2012-06-08, 00:29:04,VALID,1005.87,VALID,0,VALID,93.881,VALID,0.0815089,VALID,24.4025,VALID,60,VALID,0,
2012-06-08, 00:30:04,VALID,1005.86,VALID,0,VALID,93.8581,VALID,0.0815089,VALID,24.4025,VALID,60,VALID,0,
2012-06-08, 00:31:04,VALID,1005.85,VALID,0,VALID,93.8505,VALID,0.0815089,VALID,24.383,VALID,60,VALID,0,
2012-06-08, 00:32:04,VALID,1005.82,VALID,0,VALID,93.8276,VALID,0,VALID,24.3636,VALID,60,VALID,0,
2012-06-08, 00:33:04,VALID,1005.82,VALID,0,VALID,93.8352,VALID,0.0815089,VALID,24.3636,VALID,60,VALID,0,
2012-06-08, 00:34:04,VALID,1005.79,VALID,0,VALID,93.8505,VALID,0.0815089,VALID,24.3849,VALID,60,VALID,0,
2012-06-08, 00:35:04,VALID,1005.77,VALID,0,VALID,93.8429,VALID,0.0815089,VALID,24.3636,VALID,60,VALID,0,
2012-06-08, 00:36:04,VALID,1005.77,VALID,0,VALID,93.8657,VALID,0.0815089,VALID,24.3636,VALID,60,VALID,0,
2012-06-08, 00:37:04,VALID,1005.77,VALID,0,VALID,93.8505,VALID,0.0815089,VALID,24.3228,VALID,60,VALID,0,
2012-06-08, 00:38:04,VALID,1005.78,VALID,0,VALID,93.942,VALID,0.0815089,VALID,24.3636,VALID,60,VALID,0,
2012-06-08, 00:39:04,VALID,1005.79,VALID,0,VALID,93.9802,VALID,0,VALID,24.4043,VALID,60,VALID,0,
2012-06-08, 00:40:04,VALID,1005.79,VALID,0,VALID,93.9802,VALID,0,VALID,24.383,VALID,60,VALID,0,
2012-06-08, 00:41:04,VALID,1005.8,VALID,0,VALID,93.9725,VALID,0,VALID,24.3636,VALID,60,VALID,0,
2012-06-08, 00:42:04,VALID,1005.77,VALID,0,VALID,93.9878,VALID,0,VALID,24.3849,VALID,60,VALID,0,
2012-06-08, 00:43:04,VALID,1005.79,VALID,0,VALID,94.0031,VALID,0,VALID,24.3849,VALID,60,VALID,0,
2012-06-08, 00:44:04,VALID,1005.77,VALID,0,VALID,93.9878,VALID,0,VALID,24.3636,VALID,60,VALID,0,
2012-06-08, 00:45:04,VALID,1005.79,VALID,0,VALID,93.9878,VALID,0,VALID,24.3849,VALID,60,VALID,0,
2012-06-08, 00:46:04,VALID,1005.77,VALID,0,VALID,93.9802,VALID,0,VALID,24.3441,VALID,60,VALID,0,
2012-06-08, 00:47:04,VALID,1005.79,VALID,0,VALID,94.0031,VALID,0,VALID,24.3441,VALID,60,VALID,0,
2012-06-08, 00:48:04,VALID,1005.79,VALID,0,VALID,94.0107,VALID,0,VALID,24.3246,VALID,60,VALID,0,
2012-06-08, 00:49:04,VALID,1005.78,VALID,0,VALID,94.0107,VALID,0,VALID,24.3246,VALID,60,VALID,0,
2012-06-08, 00:50:04,VALID,1005.76,VALID,0,VALID,94.0259,VALID,0,VALID,24.3052,VALID,60,VALID,0,
2012-06-08, 00:51:04,VALID,1005.74,VALID,0,VALID,94.0488,VALID,0,VALID,24.3246,VALID,60,VALID,0,
2012-06-08, 00:52:04,VALID,1005.71,VALID,0,VALID,94.0717,VALID,0.0815089,VALID,24.3246,VALID,60,VALID,0,
2012-06-08, 00:53:04,VALID,1005.68,VALID,0,VALID,94.1175,VALID,0,VALID,24.3246,VALID,60,VALID,0,
2012-06-08, 00:54:04,VALID,1005.69,VALID,0,VALID,94.1099,VALID,0,VALID,24.3246,VALID,60,VALID,0,
2012-06-08, 00:55:04,VALID,1005.68,VALID,0,VALID,94.0717,VALID,0,VALID,24.3052,VALID,60,VALID,0,
2012-06-08, 00:56:04,VALID,1005.68,VALID,0,VALID,94.1022,VALID,0,VALID,24.2857,VALID,60,VALID,0,
2012-06-08, 00:57:04,VALID,1005.66,VALID,0,VALID,94.1251,VALID,0,VALID,24.3052,VALID,60,VALID,0,
2012-06-08, 00:58:04,VALID,1005.64,VALID,0,VALID,94.1404,VALID,0,VALID,24.3052,VALID,60,VALID,0,
2012-06-08, 00:59:04,VALID,1005.67,VALID,0,VALID,94.148,VALID,0,VALID,24.2857,VALID,60,VALID,0,
2012-06-08, 01:00:04,VALID,1005.63,VALID,0,VALID,94.1251,VALID,0.0815089,VALID,24.2857,VALID,60,VALID,0,
2012-06-08, 01:01:04,VALID,1005.62,VALID,0,VALID,94.1175,VALID,0.0815089,VALID,24.2857,VALID,60,VALID,0,
2012-06-08, 01:02:04,VALID,1005.61,VALID,0,VALID,94.1556,VALID,0.0815089,VALID,24.2857,VALID,60,VALID,0,
2012-06-08, 01:03:04,VALID,1005.6,VALID,0,VALID,94.2014,VALID,0,VALID,24.307,VALID,60,VALID,0,
2012-06-08, 01:04:04,VALID,1005.61,VALID,0,VALID,94.2319,VALID,0,VALID,24.2857,VALID,60,VALID,0,
2012-06-08, 01:05:04,VALID,1005.59,VALID,0,VALID,94.2167,VALID,0.0815089,VALID,24.2449,VALID,60,VALID,0,
2012-06-08, 01:06:04,VALID,1005.58,VALID,0,VALID,94.2472,VALID,0,VALID,24.2857,VALID,60,VALID,0,
2012-06-08, 01:07:04,VALID,1005.58,VALID,0,VALID,94.293,VALID,0,VALID,24.3246,VALID,25,VALID,0.620313,
2012-06-08, 01:08:04,VALID,1005.58,VALID,0,VALID,94.293,VALID,0,VALID,24.3246,VALID,25,VALID,0.4,
2012-06-08, 01:09:04,VALID,1005.59,VALID,0,VALID,94.354,VALID,0,VALID,24.3636,VALID,23,VALID,0.487109,
2012-06-08, 01:10:04,VALID,1005.58,VALID,0,VALID,94.3235,VALID,0,VALID,24.3849,VALID,23,VALID,0.261328,
2012-06-08, 01:11:04,VALID,1005.58,VALID,0,VALID,94.293,VALID,0,VALID,24.3636,VALID,23,VALID,0.0160156,
2012-06-08, 01:12:04,VALID,1005.59,VALID,0,VALID,94.2396,VALID,0,VALID,24.3636,VALID,23,VALID,0,
2012-06-08, 01:13:04,VALID,1005.57,VALID,0,VALID,94.2167,VALID,0,VALID,24.3654,VALID,23,VALID,0.00117188,
2012-06-08, 01:14:04,VALID,1005.55,VALID,0,VALID,94.2014,VALID,0.0815089,VALID,24.3441,VALID,23,VALID,0.0792969,
2012-06-08, 01:15:04,VALID,1005.52,VALID,0,VALID,94.1938,VALID,0.0815089,VALID,24.3441,VALID,23,VALID,0,
2012-06-08, 01:16:04,VALID,1005.5,VALID,0,VALID,94.1862,VALID,0,VALID,24.3228,VALID,23,VALID,0,
2012-06-08, 01:17:04,VALID,1005.51,VALID,0,VALID,94.1938,VALID,0,VALID,24.3441,VALID,23,VALID,0.354297,
2012-06-08, 01:18:04,VALID,1005.5,VALID,0,VALID,94.1556,VALID,0,VALID,24.3246,VALID,23,VALID,0.335547,
2012-06-08, 01:19:04,VALID,1005.5,VALID,0,VALID,94.1709,VALID,0,VALID,24.3246,VALID,23,VALID,0.316016,
2012-06-08, 01:20:04,VALID,1005.49,VALID,0,VALID,94.2014,VALID,0,VALID,24.3441,VALID,23,VALID,0.219531,
2012-06-08, 01:21:04,VALID,1005.46,VALID,0,VALID,94.2243,VALID,0,VALID,24.3422,VALID,23,VALID,0,
2012-06-08, 01:22:04,VALID,1005.47,VALID,0,VALID,94.2167,VALID,0,VALID,24.3636,VALID,23,VALID,0,
2012-06-08, 01:23:04,VALID,1005.45,VALID,0,VALID,94.2396,VALID,0.0815089,VALID,24.3441,VALID,23,VALID,0,
2012-06-08, 01:24:04,VALID,1005.5,VALID,0,VALID,94.2243,VALID,0,VALID,24.3422,VALID,23,VALID,0,
2012-06-08, 01:25:04,VALID,1005.47,VALID,0,VALID,94.2243,VALID,0,VALID,24.3849,VALID,23,VALID,0,
2012-06-08, 01:26:04,VALID,1005.47,VALID,0,VALID,94.2396,VALID,0,VALID,24.3654,VALID,23,VALID,0,
2012-06-08, 01:27:04,VALID,1005.46,VALID,0,VALID,94.209,VALID,0,VALID,24.3636,VALID,23,VALID,0,
2012-06-08, 01:28:04,VALID,1005.47,VALID,0,VALID,94.2014,VALID,0,VALID,24.3441,VALID,23,VALID,0,
2012-06-08, 01:29:04,VALID,1005.46,VALID,0,VALID,94.1862,VALID,0,VALID,24.3441,VALID,23,VALID,0,
2012-06-08, 01:30:04,VALID,1005.42,VALID,0,VALID,94.1785,VALID,0,VALID,24.3459,VALID,23,VALID,0,
2012-06-08, 01:31:04,VALID,1005.46,VALID,0,VALID,94.1785,VALID,0,VALID,24.3459,VALID,23,VALID,0,
2012-06-08, 01:32:04,VALID,1005.44,VALID,0,VALID,94.1938,VALID,0,VALID,24.3246,VALID,23,VALID,0,
2012-06-08, 01:33:04,VALID,1005.42,VALID,0,VALID,94.209,VALID,0,VALID,24.3246,VALID,23,VALID,0,
2012-06-08, 01:34:04,VALID,1005.42,VALID,0,VALID,94.209,VALID,0,VALID,24.3441,VALID,23,VALID,0,
2012-06-08, 01:35:04,VALID,1005.41,VALID,0,VALID,94.2243,VALID,0,VALID,24.3246,VALID,23,VALID,0,
2012-06-08, 01:36:04,VALID,1005.41,VALID,0,VALID,94.2396,VALID,0,VALID,24.3654,VALID,23,VALID,0,
2012-06-08, 01:37:04,VALID,1005.39,VALID,0,VALID,94.2548,VALID,0,VALID,24.4043,VALID,23,VALID,0,
2012-06-08, 01:38:04,VALID,1005.38,VALID,0,VALID,94.293,VALID,0,VALID,24.4043,VALID,23,VALID,0,
2012-06-08, 01:39:04,VALID,1005.36,VALID,0,VALID,94.2701,VALID,0,VALID,24.383,VALID,23,VALID,0,
2012-06-08, 01:40:04,VALID,1005.35,VALID,0,VALID,94.2624,VALID,0,VALID,24.4043,VALID,23,VALID,0,
2012-06-08, 01:41:05,VALID,1005.3,VALID,0,VALID,94.2472,VALID,0,VALID,24.4238,VALID,23,VALID,0,
2012-06-08, 01:42:05,VALID,1005.3,VALID,0,VALID,94.2624,VALID,0,VALID,24.4025,VALID,23,VALID,0,
2012-06-08, 01:43:05,VALID,1005.26,VALID,0,VALID,94.2472,VALID,0,VALID,24.4238,VALID,23,VALID,0,
2012-06-08, 01:44:05,VALID,1005.26,VALID,0,VALID,94.2396,VALID,0,VALID,24.4433,VALID,23,VALID,0,
2012-06-08, 01:45:05,VALID,1005.23,VALID,0,VALID,94.2396,VALID,0,VALID,24.4628,VALID,23,VALID,0,
2012-06-08, 01:46:05,VALID,1005.25,VALID,0,VALID,94.2014,VALID,0,VALID,24.4433,VALID,23,VALID,0,
2012-06-08, 01:47:05,VALID,1005.21,VALID,0,VALID,94.1938,VALID,0,VALID,24.4433,VALID,23,VALID,0,
2012-06-08, 01:48:05,VALID,1005.24,VALID,0,VALID,94.1633,VALID,0,VALID,24.4433,VALID,23,VALID,0,
2012-06-08, 01:49:05,VALID,1005.25,VALID,0,VALID,94.1785,VALID,0,VALID,24.4628,VALID,23,VALID,0,
2012-06-08, 01:50:05,VALID,1005.24,VALID,0,VALID,94.1709,VALID,0,VALID,24.4628,VALID,23,VALID,0,
2012-06-08, 01:51:05,VALID,1005.25,VALID,0,VALID,94.1404,VALID,0,VALID,24.422,VALID,23,VALID,0,
2012-06-08, 01:52:05,VALID,1005.22,VALID,0,VALID,94.1633,VALID,0,VALID,24.422,VALID,23,VALID,0,
2012-06-08, 01:53:05,VALID,1005.23,VALID,0,VALID,94.1556,VALID,0,VALID,24.422,VALID,23,VALID,0,
2012-06-08, 01:54:05,VALID,1005.22,VALID,0,VALID,94.1633,VALID,0,VALID,24.4628,VALID,23,VALID,0,
2012-06-08, 01:55:05,VALID,1005.24,VALID,0,VALID,94.1862,VALID,0,VALID,24.4433,VALID,23,VALID,0,
2012-06-08, 01:56:05,VALID,1005.23,VALID,0,VALID,94.2014,VALID,0,VALID,24.422,VALID,23,VALID,0,
2012-06-08, 01:57:05,VALID,1005.22,VALID,0,VALID,94.2014,VALID,0,VALID,24.4433,VALID,23,VALID,0,
2012-06-08, 01:58:05,VALID,1005.19,VALID,0,VALID,94.1862,VALID,0,VALID,24.422,VALID,23,VALID,0,
2012-06-08, 01:59:05,VALID,1005.19,VALID,0,VALID,94.1633,VALID,0,VALID,24.422,VALID,23,VALID,0,
2012-06-08, 02:00:05,VALID,1005.18,VALID,0,VALID,94.1785,VALID,0,VALID,24.422,VALID,23,VALID,0,
2012-06-08, 02:01:05,VALID,1005.19,VALID,0,VALID,94.209,VALID,0,VALID,24.4414,VALID,23,VALID,0,
2012-06-08, 02:02:05,VALID,1005.17,VALID,0,VALID,94.209,VALID,0,VALID,24.4433,VALID,23,VALID,0,
2012-06-08, 02:03:05,VALID,1005.17,VALID,0,VALID,94.2014,VALID,0,VALID,24.4433,VALID,23,VALID,0,
2012-06-08, 02:04:05,VALID,1005.15,VALID,0,VALID,94.1938,VALID,0,VALID,24.4628,VALID,23,VALID,0,
2012-06-08, 02:05:05,VALID,1005.18,VALID,0,VALID,94.209,VALID,0,VALID,24.4628,VALID,23,VALID,0,
2012-06-08, 02:06:05,VALID,1005.18,VALID,0,VALID,94.1862,VALID,0,VALID,24.4414,VALID,23,VALID,0,
2012-06-08, 02:07:05,VALID,1005.18,VALID,0,VALID,94.1862,VALID,0,VALID,24.4433,VALID,23,VALID,0,
2012-06-08, 02:08:05,VALID,1005.18,VALID,0,VALID,94.209,VALID,0,VALID,24.4628,VALID,23,VALID,0,
2012-06-08, 02:09:05,VALID,1005.21,VALID,0,VALID,94.209,VALID,0,VALID,24.4822,VALID,23,VALID,0,
2012-06-08, 02:10:05,VALID,1005.19,VALID,0,VALID,94.209,VALID,0,VALID,24.4414,VALID,23,VALID,0,
2012-06-08, 02:11:05,VALID,1005.16,VALID,0,VALID,94.2396,VALID,0,VALID,24.4628,VALID,23,VALID,0,
2012-06-08, 02:12:05,VALID,1005.16,VALID,0,VALID,94.2701,VALID,0,VALID,24.4609,VALID,23,VALID,0,
2012-06-08, 02:13:05,VALID,1005.2,VALID,0,VALID,94.3082,VALID,0,VALID,24.4804,VALID,23,VALID,0,
2012-06-08, 02:14:05,VALID,1005.22,VALID,0,VALID,94.3235,VALID,0,VALID,24.4804,VALID,23,VALID,0,
2012-06-08, 02:15:05,VALID,1005.27,VALID,0,VALID,94.3158,VALID,0,VALID,24.5017,VALID,23,VALID,0,
2012-06-08, 02:16:05,VALID,1005.28,VALID,0,VALID,94.3464,VALID,0,VALID,24.4998,VALID,23,VALID,0,
2012-06-08, 02:17:05,VALID,1005.33,VALID,0,VALID,94.3387,VALID,0,VALID,24.4998,VALID,23,VALID,0,
2012-06-08, 02:18:05,VALID,1005.35,VALID,0,VALID,94.3311,VALID,0,VALID,24.5212,VALID,23,VALID,0,
2012-06-08, 02:19:05,VALID,1005.34,VALID,0,VALID,94.3158,VALID,0,VALID,24.5212,VALID,23,VALID,0,
2012-06-08, 02:20:05,VALID,1005.35,VALID,0,VALID,94.2853,VALID,0,VALID,24.4785,VALID,23,VALID,0,
2012-06-08, 02:21:05,VALID,1005.29,VALID,0,VALID,94.3082,VALID,0,VALID,24.4998,VALID,23,VALID,0,
2012-06-08, 02:22:05,VALID,1005.31,VALID,0,VALID,94.293,VALID,0,VALID,24.5406,VALID,23,VALID,0,
2012-06-08, 02:23:05,VALID,1005.32,VALID,0,VALID,94.3311,VALID,0,VALID,24.5212,VALID,23,VALID,0,
2012-06-08, 02:24:05,VALID,1005.33,VALID,0,VALID,94.3235,VALID,0,VALID,24.5406,VALID,23,VALID,0,
2012-06-08, 02:25:05,VALID,1005.35,VALID,0,VALID,94.3235,VALID,0,VALID,24.5193,VALID,23,VALID,0,
2012-06-08, 02:26:05,VALID,1005.36,VALID,0,VALID,94.2624,VALID,0,VALID,24.4804,VALID,23,VALID,0,
2012-06-08, 02:27:05,VALID,1005.39,VALID,0,VALID,94.2472,VALID,0,VALID,24.4609,VALID,23,VALID,0,
2012-06-08, 02:28:05,VALID,1005.42,VALID,0,VALID,94.2472,VALID,0,VALID,24.4609,VALID,23,VALID,0,
2012-06-08, 02:29:05,VALID,1005.45,VALID,0,VALID,94.2624,VALID,0,VALID,24.5017,VALID,23,VALID,0,
2012-06-08, 02:30:05,VALID,1005.45,VALID,0,VALID,94.2701,VALID,0,VALID,24.5017,VALID,23,VALID,0,
2012-06-08, 02:31:05,VALID,1005.47,VALID,0,VALID,94.2624,VALID,0,VALID,24.5017,VALID,23,VALID,0,
2012-06-08, 02:32:05,VALID,1005.46,VALID,0,VALID,94.2777,VALID,0,VALID,24.4822,VALID,23,VALID,0,
2012-06-08, 02:33:05,VALID,1005.44,VALID,0,VALID,94.2853,VALID,0,VALID,24.4609,VALID,23,VALID,0,
2012-06-08, 02:34:05,VALID,1005.44,VALID,0,VALID,94.2853,VALID,0,VALID,24.4822,VALID,23,VALID,0,
2012-06-08, 02:35:05,VALID,1005.44,VALID,0,VALID,94.3158,VALID,0,VALID,24.4414,VALID,23,VALID,0,
2012-06-08, 02:36:05,VALID,1005.38,VALID,0,VALID,94.3464,VALID,0,VALID,24.4609,VALID,23,VALID,0,
2012-06-08, 02:37:05,VALID,1005.33,VALID,0,VALID,94.3235,VALID,0,VALID,24.4609,VALID,23,VALID,0,
2012-06-08, 02:38:05,VALID,1005.36,VALID,0,VALID,94.3387,VALID,0,VALID,24.4609,VALID,23,VALID,0,
2012-06-08, 02:39:05,VALID,1005.31,VALID,0,VALID,94.3235,VALID,0,VALID,24.4822,VALID,23,VALID,0,
2012-06-08, 02:40:05,VALID,1005.29,VALID,0,VALID,94.3311,VALID,0,VALID,24.4609,VALID,23,VALID,0,
2012-06-08, 02:41:05,VALID,1005.24,VALID,0,VALID,94.3464,VALID,0,VALID,24.4822,VALID,23,VALID,0,
2012-06-08, 02:42:05,VALID,1005.2,VALID,0,VALID,94.3616,VALID,0.0815089,VALID,24.4609,VALID,23,VALID,0,
2012-06-08, 02:43:05,VALID,1005.17,VALID,0,VALID,94.3387,VALID,0,VALID,24.4609,VALID,23,VALID,0,
2012-06-08, 02:44:05,VALID,1005.14,VALID,0,VALID,94.3845,VALID,0,VALID,24.5017,VALID,23,VALID,0,
2012-06-08, 02:45:05,VALID,1005.15,VALID,0,VALID,94.3845,VALID,0,VALID,24.5017,VALID,23,VALID,0,
2012-06-08, 02:46:05,VALID,1005.15,VALID,0,VALID,94.3769,VALID,0,VALID,24.5017,VALID,23,VALID,0,
2012-06-08, 02:47:05,VALID,1005.17,VALID,0,VALID,94.4074,VALID,0,VALID,24.4998,VALID,23,VALID,0,
2012-06-08, 02:48:05,VALID,1005.2,VALID,0,VALID,94.3616,VALID,0,VALID,24.4822,VALID,23,VALID,0,
2012-06-08, 02:49:05,VALID,1005.21,VALID,0,VALID,94.3616,VALID,0,VALID,24.5017,VALID,23,VALID,0,
2012-06-08, 02:50:05,VALID,1005.25,VALID,0,VALID,94.3387,VALID,0,VALID,24.4609,VALID,23,VALID,0,
2012-06-08, 02:51:05,VALID,1005.25,VALID,0,VALID,94.3235,VALID,0,VALID,24.4822,VALID,23,VALID,0,
2012-06-08, 02:52:05,VALID,1005.25,VALID,0,VALID,94.3311,VALID,0,VALID,24.4804,VALID,23,VALID,0,
2012-06-08, 02:53:05,VALID,1005.25,VALID,0,VALID,94.3158,VALID,0,VALID,24.4822,VALID,23,VALID,0,
2012-06-08, 02:54:05,VALID,1005.25,VALID,0,VALID,94.3235,VALID,0,VALID,24.4822,VALID,23,VALID,0,
2012-06-08, 02:55:05,VALID,1005.24,VALID,0,VALID,94.3311,VALID,0,VALID,24.4609,VALID,23,VALID,0,
2012-06-08, 02:56:05,VALID,1005.24,VALID,0,VALID,94.3311,VALID,0,VALID,24.5212,VALID,23,VALID,0,
2012-06-08, 02:57:05,VALID,1005.25,VALID,0,VALID,94.3311,VALID,0,VALID,24.5017,VALID,23,VALID,0,
2012-06-08, 02:58:05,VALID,1005.22,VALID,0,VALID,94.3311,VALID,0,VALID,24.5017,VALID,23,VALID,0,
2012-06-08, 02:59:05,VALID,1005.22,VALID,0,VALID,94.3158,VALID,0,VALID,24.5017,VALID,23,VALID,0,
2012-06-08, 03:00:05,VALID,1005.22,VALID,0,VALID,94.293,VALID,0,VALID,24.5017,VALID,23,VALID,0,
2012-06-08, 03:01:05,VALID,1005.19,VALID,0,VALID,94.2548,VALID,0,VALID,24.4822,VALID,23,VALID,0,
2012-06-08, 03:02:05,VALID,1005.2,VALID,0,VALID,94.2396,VALID,0,VALID,24.4822,VALID,23,VALID,0,
2012-06-08, 03:03:05,VALID,1005.19,VALID,0,VALID,94.2624,VALID,0,VALID,24.4609,VALID,23,VALID,0,
2012-06-08, 03:04:05,VALID,1005.15,VALID,0,VALID,94.293,VALID,0,VALID,24.4609,VALID,23,VALID,0,
2012-06-08, 03:05:05,VALID,1005.15,VALID,0,VALID,94.3006,VALID,0,VALID,24.5017,VALID,23,VALID,0,
2012-06-08, 03:06:05,VALID,1005.14,VALID,0,VALID,94.3311,VALID,0,VALID,24.5017,VALID,23,VALID,0,
2012-06-08, 03:07:05,VALID,1005.12,VALID,0,VALID,94.3158,VALID,0,VALID,24.5017,VALID,23,VALID,0,
2012-06-08, 03:08:05,VALID,1005.12,VALID,0,VALID,94.3082,VALID,0,VALID,24.5017,VALID,23,VALID,0,
2012-06-08, 03:09:05,VALID,1005.11,VALID,0,VALID,94.3235,VALID,0,VALID,24.4822,VALID,23,VALID,0,
2012-06-08, 03:10:05,VALID,1005.08,VALID,0,VALID,94.3082,VALID,0,VALID,24.4822,VALID,23,VALID,0,
2012-06-08, 03:11:05,VALID,1005.1,VALID,0,VALID,94.3006,VALID,0.0815089,VALID,24.4609,VALID,23,VALID,0,
2012-06-08, 03:12:05,VALID,1005.1,VALID,0,VALID,94.3158,VALID,0,VALID,24.4628,VALID,23,VALID,0,
2012-06-08, 03:13:05,VALID,1005.08,VALID,0,VALID,94.3387,VALID,0,VALID,24.4822,VALID,23,VALID,0,
2012-06-08, 03:14:05,VALID,1005.12,VALID,0,VALID,94.3464,VALID,0,VALID,24.4609,VALID,23,VALID,0,
2012-06-08, 03:15:05,VALID,1005.14,VALID,0,VALID,94.3464,VALID,0,VALID,24.4822,VALID,23,VALID,0,
2012-06-08, 03:16:05,VALID,1005.17,VALID,0,VALID,94.3769,VALID,0,VALID,24.5017,VALID,23,VALID,0,
2012-06-08, 03:17:05,VALID,1005.21,VALID,0,VALID,94.3769,VALID,0,VALID,24.5017,VALID,23,VALID,0,
2012-06-08, 03:18:05,VALID,1005.22,VALID,0,VALID,94.4074,VALID,0,VALID,24.5212,VALID,23,VALID,0,
2012-06-08, 03:19:05,VALID,1005.28,VALID,0,VALID,94.4608,VALID,0,VALID,24.5193,VALID,23,VALID,0,
2012-06-08, 03:20:05,VALID,1005.31,VALID,0,VALID,94.4608,VALID,0,VALID,24.5601,VALID,143,VALID,1.03633,
2012-06-08, 03:21:05,VALID,1005.35,VALID,0,VALID,94.4913,VALID,0,VALID,24.5582,VALID,145,VALID,0.827344,
2012-06-08, 03:22:05,VALID,1005.34,VALID,0,VALID,94.4608,VALID,0,VALID,24.5796,VALID,139,VALID,1.275,
2012-06-08, 03:23:05,VALID,1005.33,VALID,0,VALID,94.4989,VALID,0,VALID,24.599,VALID,124,VALID,1.12266,
2012-06-08, 03:24:05,VALID,1005.34,VALID,0,VALID,94.4837,VALID,0,VALID,24.6166,VALID,153,VALID,0.947266,
2012-06-08, 03:25:05,VALID,1005.36,VALID,0,VALID,94.4379,VALID,0,VALID,24.6361,VALID,137,VALID,0.462891,
2012-06-08, 03:26:05,VALID,1005.34,VALID,0,VALID,94.3464,VALID,0,VALID,24.6769,VALID,134,VALID,0.426562,
2012-06-08, 03:27:05,VALID,1005.36,VALID,0,VALID,94.2548,VALID,0,VALID,24.6964,VALID,134,VALID,0.342969,
2012-06-08, 03:28:05,VALID,1005.33,VALID,0,VALID,94.1785,VALID,0,VALID,24.7159,VALID,128,VALID,0.0398437,
2012-06-08, 03:29:05,VALID,1005.34,VALID,0,VALID,94.1099,VALID,0,VALID,24.7353,VALID,128,VALID,0.310156,
2012-06-08, 03:30:05,VALID,1005.36,VALID,0,VALID,94.0336,VALID,0,VALID,24.7548,VALID,128,VALID,0.458203,
2012-06-08, 03:31:05,VALID,1005.36,VALID,0,VALID,93.9573,VALID,0,VALID,24.7724,VALID,98,VALID,0.467578,
2012-06-08, 03:32:05,VALID,1005.38,VALID,0,VALID,93.8581,VALID,0,VALID,24.7937,VALID,84,VALID,0.531641,
2012-06-08, 03:33:05,VALID,1005.37,VALID,0,VALID,93.7742,VALID,0,VALID,24.8327,VALID,83,VALID,0.845312,
2012-06-08, 03:34:05,VALID,1005.33,VALID,0,VALID,93.6292,VALID,0,VALID,24.8697,VALID,100,VALID,0.649609,
2012-06-08, 03:35:05,VALID,1005.3,VALID,0,VALID,93.4309,VALID,0,VALID,24.9282,VALID,104,VALID,0.350781,
2012-06-08, 03:36:05,VALID,1005.28,VALID,0,VALID,93.1868,VALID,0,VALID,24.969,VALID,104,VALID,0.0628906,
2012-06-08, 03:37:05,VALID,1005.26,VALID,0,VALID,92.8969,VALID,0,VALID,24.9866,VALID,104,VALID,0.301562,
2012-06-08, 03:38:05,VALID,1005.21,VALID,0,VALID,92.668,VALID,0,VALID,25.006,VALID,104,VALID,0,
2012-06-08, 03:39:05,VALID,1005.2,VALID,0,VALID,92.4391,VALID,0,VALID,25.0274,VALID,104,VALID,0,
2012-06-08, 03:40:05,VALID,1005.16,VALID,0,VALID,92.2866,VALID,0,VALID,25.0469,VALID,104,VALID,0,
2012-06-08, 03:41:05,VALID,1005.18,VALID,0,VALID,92.1187,VALID,0,VALID,25.045,VALID,104,VALID,0,
2012-06-08, 03:42:05,VALID,1005.2,VALID,0,VALID,92.0119,VALID,0,VALID,25.0255,VALID,104,VALID,0,
2012-06-08, 03:43:05,VALID,1005.2,VALID,0,VALID,91.9051,VALID,0,VALID,25.0663,VALID,104,VALID,0,
2012-06-08, 03:44:05,VALID,1005.21,VALID,0,VALID,91.867,VALID,0,VALID,25.045,VALID,104,VALID,0,
2012-06-08, 03:45:05,VALID,1005.22,VALID,0,VALID,91.8441,VALID,0,VALID,25.0255,VALID,104,VALID,0,
2012-06-08, 03:46:05,VALID,1005.18,VALID,0,VALID,91.8746,VALID,0,VALID,25.0274,VALID,104,VALID,0,
2012-06-08, 03:47:05,VALID,1005.17,VALID,0,VALID,91.8746,VALID,0,VALID,24.9866,VALID,104,VALID,0,
2012-06-08, 03:48:05,VALID,1005.15,VALID,0,VALID,91.9509,VALID,0,VALID,24.9671,VALID,104,VALID,0,
2012-06-08, 03:49:05,VALID,1005.14,VALID,0,VALID,92.0424,VALID,0,VALID,24.9671,VALID,104,VALID,0,
2012-06-08, 03:50:05,VALID,1005.14,VALID,0,VALID,92.1111,VALID,0,VALID,24.969,VALID,104,VALID,0,
2012-06-08, 03:51:05,VALID,1005.14,VALID,0,VALID,92.2027,VALID,0,VALID,24.9282,VALID,104,VALID,0,
2012-06-08, 03:52:05,VALID,1005.17,VALID,0,VALID,92.3323,VALID,0,VALID,24.9514,VALID,104,VALID,0,
2012-06-08, 03:53:05,VALID,1005.19,VALID,0,VALID,92.4239,VALID,0,VALID,24.9087,VALID,104,VALID,0,
2012-06-08, 03:54:05,VALID,1005.23,VALID,0,VALID,92.5688,VALID,0,VALID,24.8911,VALID,104,VALID,0,
2012-06-08, 03:55:05,VALID,1005.26,VALID,0,VALID,92.6528,VALID,0,VALID,24.8697,VALID,88,VALID,0,
2012-06-08, 03:56:05,VALID,1005.29,VALID,0,VALID,92.7062,VALID,0,VALID,24.8503,VALID,87,VALID,0,
2012-06-08, 03:57:05,VALID,1005.32,VALID,0,VALID,92.7901,VALID,0,VALID,24.8716,VALID,74,VALID,0,